Simultaneous Nadir Overpasses (SNOs) Predictions

Prediction of SNOs between AQUA and METOP-B Satellite Orbit:

Table of predicted SNOs for the next 14.0 days since TLE Epoch: 2/26/2017
Index Date (AQUA) Time (AQUA) Lat,Lon (AQUA) SZA (AQUA ) Date (METOP-B) Time (METOP-B) Lat,Lon (METOP-B) SZA (METOP-B ) Distance(km) Time Diff (sec)
1 02/26/2017 07:16:25 -73.56,-114.37 97.75 02/26/2017 07:15:12 -73.52,-114.95 97.75 18.86 73
2 02/26/2017 08:05:56 73.73, 52.90 82.43 02/26/2017 08:05:48 73.73, 52.87 82.43 1.09 8
3 02/26/2017 08:55:23 -73.82,-139.64 97.50 02/26/2017 08:56:28 -73.80,-139.64 97.53 2.18 65
4 03/01/2017 02:50:44 -73.70, -48.22 98.67 03/01/2017 02:49:31 -73.70, -48.13 98.66 2.83 73
5 03/01/2017 03:40:13 73.77, 119.25 81.41 03/01/2017 03:40:10 73.75, 119.34 81.39 3.23 3
6 03/01/2017 04:29:38 -73.80, -73.16 98.59 03/01/2017 04:30:49 -73.83, -73.17 98.57 3.27 71
7 03/03/2017 22:24:59 -73.69, 18.24 99.76 03/03/2017 22:23:53 -73.67, 18.22 99.76 1.66 66
8 03/03/2017 23:14:28 73.77,-174.29 80.32 03/03/2017 23:14:31 73.78,-174.21 80.32 2.91 3
9 03/04/2017 00:03:57 -73.94, -7.04 99.51 03/04/2017 00:05:09 -73.95, -6.46 99.54 17.71 72
10 03/06/2017 17:59:15 -73.68, 84.69 100.86 03/06/2017 17:58:15 -73.70, 84.68 100.83 1.39 60
11 03/06/2017 18:48:44 73.77,-107.86 79.23 03/06/2017 18:48:54 73.74,-107.87 79.20 2.81 10
12 03/06/2017 19:38:18 -74.19, 58.82 100.33 03/06/2017 19:39:27 -74.17, 60.48 100.43 50.54 69
13 03/09/2017 13:33:31 -73.69, 151.12 101.96 03/09/2017 13:32:37 -73.72, 151.13 101.92 2.79 54
14 03/09/2017 14:23:00 73.78, -41.45 78.13 03/09/2017 14:23:16 73.76, -41.43 78.11 2.50 16




NCC Satellite Simultaneous Nadir Overpasses (SNOs) Prediction Service
